owner,sensor,date,latitude,longitude,vertical_datum,mass_concentration_of_oxygen_in_sea_water,qcFlag 
SCCF RECON,ioos:station:SCCF:13:1,2015-11-01T00:00:00Z,26.5255,-82.0032,2.75,6.66,1111122 
SCCF RECON,ioos:station:SCCF:13:1,2015-11-01T01:00:00Z,26.5255,-82.0032,2.73,6.12,1111122 
SCCF RECON,ioos:station:SCCF:13:1,2015-11-01T02:00:00Z,26.5255,-82.0032,2.7,6.3,1111122 
SCCF RECON,ioos:station:SCCF:13:1,2015-11-01T03:00:00Z,26.5255,-82.0032,2.697,5.91,1111122 
SCCF RECON,ioos:station:SCCF:13:1,2015-11-01T04:00:00Z,26.5255,-82.0032,2.74,5.78,1111122 
SCCF RECON,ioos:station:SCCF:13:1,2015-11-01T05:00:00Z,26.5255,-82.0032,2.81,5.48,1111122 
SCCF RECON,ioos:station:SCCF:13:1,2015-11-01T06:00:00Z,26.5255,-82.0032,2.86,6.02,1111122 
SCCF RECON,ioos:station:SCCF:13:1,2015-11-01T07:00:00Z,26.5255,-82.0032,2.9,6.2,1111122 
SCCF RECON,ioos:station:SCCF:13:1,2015-11-01T08:00:00Z,26.5255,-82.0032,2.923,6.25,1111122 
SCCF RECON,ioos:station:SCCF:13:1,2015-11-01T09:00:00Z,26.5255,-82.0032,2.937,5.92,1111122 
SCCF RECON,ioos:station:SCCF:13:1,2015-11-01T10:00:00Z,26.5255,-82.0032,2.906,5.74,1111122 
SCCF RECON,ioos:station:SCCF:13:1,2015-11-01T11:00:00Z,26.5255,-82.0032,2.83,5.49,1111122 
SCCF RECON,ioos:station:SCCF:13:1,2015-11-01T12:00:00Z,26.5255,-82.0032,2.721,5.51,1111122 
SCCF RECON,ioos:station:SCCF:13:1,2015-11-01T13:00:00Z,26.5255,-82.0032,2.63,5.69,1111122 
SCCF RECON,ioos:station:SCCF:13:1,2015-11-01T14:00:00Z,26.5255,-82.0032,2.531,5.76,1111122 
SCCF RECON,ioos:station:SCCF:13:1,2015-11-01T15:00:00Z,26.5255,-82.0032,2.43,5.79,1111122 
SCCF RECON,ioos:station:SCCF:13:1,2015-11-01T16:00:00Z,26.5255,-82.0032,2.36,5.9,1111122 
SCCF RECON,ioos:station:SCCF:13:1,2015-11-01T17:00:00Z,26.5255,-82.0032,2.369,5.93,1111122 
SCCF RECON,ioos:station:SCCF:13:1,2015-11-01T18:00:00Z,26.5255,-82.0032,2.47,6.01,1111122 
SCCF RECON,ioos:station:SCCF:13:1,2015-11-01T19:00:00Z,26.5255,-82.0032,2.569,5.97,1111122 
SCCF RECON,ioos:station:SCCF:13:1,2015-11-01T20:00:00Z,26.5255,-82.0032,2.619,6.21,1111122 
SCCF RECON,ioos:station:SCCF:13:1,2015-11-01T21:00:00Z,26.5255,-82.0032,2.675,6.12,1111122 
SCCF RECON,ioos:station:SCCF:13:1,2015-11-01T22:00:00Z,26.5255,-82.0032,2.733,6.19,1111122 
SCCF RECON,ioos:station:SCCF:13:1,2015-11-01T23:00:00Z,26.5255,-82.0032,2.77,6.43,1111122 
SCCF RECON,ioos:station:SCCF:13:1,2015-11-02T00:00:00Z,26.5255,-82.0032,2.77,6.38,1111122 
SCCF RECON,ioos:station:SCCF:13:1,2015-11-02T01:00:00Z,26.5255,-82.0032,2.73,6.17,1111122 
SCCF RECON,ioos:station:SCCF:13:1,2015-11-02T02:00:00Z,26.5255,-82.0032,2.7,6.26,1111122 
SCCF RECON,ioos:station:SCCF:13:1,2015-11-02T03:00:00Z,26.5255,-82.0032,2.7,6.12,1111122 
SCCF RECON,ioos:station:SCCF:13:1,2015-11-02T04:00:00Z,26.5255,-82.0032,2.69,5.57,1111122 
SCCF RECON,ioos:station:SCCF:13:1,2015-11-02T05:00:00Z,26.5255,-82.0032,2.7,5.51,1111122 
SCCF RECON,ioos:station:SCCF:13:1,2015-11-02T06:00:00Z,26.5255,-82.0032,2.753,5.01,1111122 
SCCF RECON,ioos:station:SCCF:13:1,2015-11-02T07:00:00Z,26.5255,-82.0032,2.78,5.55,1111122 
SCCF RECON,ioos:station:SCCF:13:1,2015-11-02T08:00:00Z,26.5255,-82.0032,2.82,5.89,1111122 
SCCF RECON,ioos:station:SCCF:13:1,2015-11-02T09:00:00Z,26.5255,-82.0032,2.85,5.81,1111122 
SCCF RECON,ioos:station:SCCF:13:1,2015-11-02T10:00:00Z,26.5255,-82.0032,2.87,5.77,1111122 
SCCF RECON,ioos:station:SCCF:13:1,2015-11-02T11:00:00Z,26.5255,-82.0032,2.87,5.56,1111122 
SCCF RECON,ioos:station:SCCF:13:1,2015-11-02T12:00:00Z,26.5255,-82.0032,2.8,5.35,1111122 
SCCF RECON,ioos:station:SCCF:13:1,2015-11-02T13:00:00Z,26.5255,-82.0032,2.688,5.41,1111122 
SCCF RECON,ioos:station:SCCF:13:1,2015-11-02T14:00:00Z,26.5255,-82.0032,2.6,5.58,1111122 
SCCF RECON,ioos:station:SCCF:13:1,2015-11-02T15:00:00Z,26.5255,-82.0032,2.516,5.66,1111122 
SCCF RECON,ioos:station:SCCF:13:1,2015-11-02T16:00:00Z,26.5255,-82.0032,2.43,5.82,1111122 
SCCF RECON,ioos:station:SCCF:13:1,2015-11-02T17:00:00Z,26.5255,-82.0032,2.366,5.97,1111122 
SCCF RECON,ioos:station:SCCF:13:1,2015-11-02T18:00:00Z,26.5255,-82.0032,2.377,6.01,1111122 
SCCF RECON,ioos:station:SCCF:13:1,2015-11-02T19:00:00Z,26.5255,-82.0032,2.479,5.95,1111122 
SCCF RECON,ioos:station:SCCF:13:1,2015-11-02T20:00:00Z,26.5255,-82.0032,2.559,5.97,1111122 
SCCF RECON,ioos:station:SCCF:13:1,2015-11-02T21:00:00Z,26.5255,-82.0032,2.59,6.31,1111122 
SCCF RECON,ioos:station:SCCF:13:1,2015-11-02T22:00:00Z,26.5255,-82.0032,2.63,5.83,1111122 
SCCF RECON,ioos:station:SCCF:13:1,2015-11-02T23:00:00Z,26.5255,-82.0032,2.67,5.92,1111122 
SCCF RECON,ioos:station:SCCF:13:1,2015-11-03T00:00:00Z,26.5255,-82.0032,2.7,5.96,1111122 
SCCF RECON,ioos:station:SCCF:13:1,2015-11-03T01:00:00Z,26.5255,-82.0032,2.71,6.15,1111122 
SCCF RECON,ioos:station:SCCF:13:1,2015-11-03T02:00:00Z,26.5255,-82.0032,2.7,6.12,1111122 
SCCF RECON,ioos:station:SCCF:13:1,2015-11-03T03:00:00Z,26.5255,-82.0032,2.68,5.71,1111122 
SCCF RECON,ioos:station:SCCF:13:1,2015-11-03T04:00:00Z,26.5255,-82.0032,2.65,5.92,1111122 
SCCF RECON,ioos:station:SCCF:13:1,2015-11-03T05:00:00Z,26.5255,-82.0032,2.61,5.57,1111122 
SCCF RECON,ioos:station:SCCF:13:1,2015-11-03T06:00:00Z,26.5255,-82.0032,2.605,5.33,1111122 
SCCF RECON,ioos:station:SCCF:13:1,2015-11-03T07:00:00Z,26.5255,-82.0032,2.63,5.32,1111122 
SCCF RECON,ioos:station:SCCF:13:1,2015-11-03T08:00:00Z,26.5255,-82.0032,2.689,4.28,1111122 
SCCF RECON,ioos:station:SCCF:13:1,2015-11-03T09:00:00Z,26.5255,-82.0032,2.71,5.13,1111122 
SCCF RECON,ioos:station:SCCF:13:1,2015-11-03T10:00:00Z,26.5255,-82.0032,2.734,5.33,1111122 
SCCF RECON,ioos:station:SCCF:13:1,2015-11-03T11:00:00Z,26.5255,-82.0032,2.75,5.39,1111122 
SCCF RECON,ioos:station:SCCF:13:1,2015-11-03T12:00:00Z,26.5255,-82.0032,2.78,5.2,1111122 
SCCF RECON,ioos:station:SCCF:13:1,2015-11-03T13:00:00Z,26.5255,-82.0032,2.76,5.04,1111122 
SCCF RECON,ioos:station:SCCF:13:1,2015-11-03T14:00:00Z,26.5255,-82.0032,2.68,5.17,1111122 
SCCF RECON,ioos:station:SCCF:13:1,2015-11-03T15:00:00Z,26.5255,-82.0032,2.582,5.06,1111122 
SCCF RECON,ioos:station:SCCF:13:1,2015-11-03T16:00:00Z,26.5255,-82.0032,2.515,5.66,1111122 
SCCF RECON,ioos:station:SCCF:13:1,2015-11-03T17:00:00Z,26.5255,-82.0032,2.443,5.9,1111122 
SCCF RECON,ioos:station:SCCF:13:1,2015-11-03T18:00:00Z,26.5255,-82.0032,2.38,6.31,1111122 
SCCF RECON,ioos:station:SCCF:13:1,2015-11-03T19:00:00Z,26.5255,-82.0032,2.38,6.52,1111122 
SCCF RECON,ioos:station:SCCF:13:1,2015-11-03T20:00:00Z,26.5255,-82.0032,2.45,6.55,1111122 
SCCF RECON,ioos:station:SCCF:13:1,2015-11-03T21:00:00Z,26.5255,-82.0032,2.549,6.11,1111122 
SCCF RECON,ioos:station:SCCF:13:1,2015-11-03T22:00:00Z,26.5255,-82.0032,2.6,6.2,1111122 
SCCF RECON,ioos:station:SCCF:13:1,2015-11-03T23:00:00Z,26.5255,-82.0032,2.63,5.9,1111122 
SCCF RECON,ioos:station:SCCF:13:1,2015-11-04T00:00:00Z,26.5255,-82.0032,2.673,5.65,1111122 
SCCF RECON,ioos:station:SCCF:13:1,2015-11-04T01:00:00Z,26.5255,-82.0032,2.72,6.18,1111122 
SCCF RECON,ioos:station:SCCF:13:1,2015-11-04T02:00:00Z,26.5255,-82.0032,2.75,6.22,1111122 
SCCF RECON,ioos:station:SCCF:13:1,2015-11-04T03:00:00Z,26.5255,-82.0032,2.74,5.93,1111122 
SCCF RECON,ioos:station:SCCF:13:1,2015-11-04T04:00:00Z,26.5255,-82.0032,2.71,5.77,1111122 
SCCF RECON,ioos:station:SCCF:13:1,2015-11-04T05:00:00Z,26.5255,-82.0032,2.63,5.94,1111122 
SCCF RECON,ioos:station:SCCF:13:1,2015-11-04T06:00:00Z,26.5255,-82.0032,2.57,5.51,1111122 
SCCF RECON,ioos:station:SCCF:13:1,2015-11-04T07:00:00Z,26.5255,-82.0032,2.54,5.77,1111122 
SCCF RECON,ioos:station:SCCF:13:1,2015-11-04T08:00:00Z,26.5255,-82.0032,2.551,5.88,1111122 
SCCF RECON,ioos:station:SCCF:13:1,2015-11-04T09:00:00Z,26.5255,-82.0032,2.61,5.38,1111122 
SCCF RECON,ioos:station:SCCF:13:1,2015-11-04T10:00:00Z,26.5255,-82.0032,2.66,5.2,1111122 
SCCF RECON,ioos:station:SCCF:13:1,2015-11-04T11:00:00Z,26.5255,-82.0032,2.691,5.03,1111122 
SCCF RECON,ioos:station:SCCF:13:1,2015-11-04T12:00:00Z,26.5255,-82.0032,2.711,5.32,1111122 
SCCF RECON,ioos:station:SCCF:13:1,2015-11-04T13:00:00Z,26.5255,-82.0032,2.73,5.32,1111122 
SCCF RECON,ioos:station:SCCF:13:1,2015-11-04T14:00:00Z,26.5255,-82.0032,2.72,5.37,1111122 
SCCF RECON,ioos:station:SCCF:13:1,2015-11-04T15:00:00Z,26.5255,-82.0032,2.675,5.09,1111122 
SCCF RECON,ioos:station:SCCF:13:1,2015-11-04T16:00:00Z,26.5255,-82.0032,2.581,5.26,1111122 
SCCF RECON,ioos:station:SCCF:13:1,2015-11-04T17:00:00Z,26.5255,-82.0032,2.499,6.01,1111122 
SCCF RECON,ioos:station:SCCF:13:1,2015-11-04T18:00:00Z,26.5255,-82.0032,2.44,6.1,1111122 
SCCF RECON,ioos:station:SCCF:13:1,2015-11-04T19:00:00Z,26.5255,-82.0032,2.38,6.72,1111122 
SCCF RECON,ioos:station:SCCF:13:1,2015-11-04T20:00:00Z,26.5255,-82.0032,2.36,7.28,1111122 
SCCF RECON,ioos:station:SCCF:13:1,2015-11-04T21:00:00Z,26.5255,-82.0032,2.42,7.8,1111122 
SCCF RECON,ioos:station:SCCF:13:1,2015-11-04T22:00:00Z,26.5255,-82.0032,2.52,7.32,1111122 
SCCF RECON,ioos:station:SCCF:13:1,2015-11-04T23:00:00Z,26.5255,-82.0032,2.58,6.53,1111122 
SCCF RECON,ioos:station:SCCF:13:1,2015-11-05T00:00:00Z,26.5255,-82.0032,2.649,6.11,1111122 
SCCF RECON,ioos:station:SCCF:13:1,2015-11-05T01:00:00Z,26.5255,-82.0032,2.704,5.77,1111122 
SCCF RECON,ioos:station:SCCF:13:1,2015-11-05T02:00:00Z,26.5255,-82.0032,2.74,5.97,1111122 
SCCF RECON,ioos:station:SCCF:13:1,2015-11-05T03:00:00Z,26.5255,-82.0032,2.76,6.17,1111122 
SCCF RECON,ioos:station:SCCF:13:1,2015-11-05T04:00:00Z,26.5255,-82.0032,2.73,6.03,1111122 
SCCF RECON,ioos:station:SCCF:13:1,2015-11-05T05:00:00Z,26.5255,-82.0032,2.66,5.96,1111122 
SCCF RECON,ioos:station:SCCF:13:1,2015-11-05T06:00:00Z,26.5255,-82.0032,2.57,5.62,1111122 
SCCF RECON,ioos:station:SCCF:13:1,2015-11-05T07:00:00Z,26.5255,-82.0032,2.5,5.95,1111122 
SCCF RECON,ioos:station:SCCF:13:1,2015-11-05T08:00:00Z,26.5255,-82.0032,2.469,6.13,1111122 
SCCF RECON,ioos:station:SCCF:13:1,2015-11-05T09:00:00Z,26.5255,-82.0032,2.47,6.13,1111122 
SCCF RECON,ioos:station:SCCF:13:1,2015-11-05T10:00:00Z,26.5255,-82.0032,2.53,6.33,1111122 
SCCF RECON,ioos:station:SCCF:13:1,2015-11-05T11:00:00Z,26.5255,-82.0032,2.601,5.67,1111122 
SCCF RECON,ioos:station:SCCF:13:1,2015-11-05T12:00:00Z,26.5255,-82.0032,2.65,5.28,1111122 
SCCF RECON,ioos:station:SCCF:13:1,2015-11-05T13:00:00Z,26.5255,-82.0032,2.66,5.19,1111122 
SCCF RECON,ioos:station:SCCF:13:1,2015-11-05T14:00:00Z,26.5255,-82.0032,2.687,5.25,1111122 
SCCF RECON,ioos:station:SCCF:13:1,2015-11-05T15:00:00Z,26.5255,-82.0032,2.671,5.41,1111122 
SCCF RECON,ioos:station:SCCF:13:1,2015-11-05T16:00:00Z,26.5255,-82.0032,2.62,5.06,1111122 
SCCF RECON,ioos:station:SCCF:13:1,2015-11-05T17:00:00Z,26.5255,-82.0032,2.539,5.51,1111122 
SCCF RECON,ioos:station:SCCF:13:1,2015-11-05T18:00:00Z,26.5255,-82.0032,2.45,6.36,1111122 
SCCF RECON,ioos:station:SCCF:13:1,2015-11-05T19:00:00Z,26.5255,-82.0032,2.4,7.53,1111122 
SCCF RECON,ioos:station:SCCF:13:1,2015-11-05T20:00:00Z,26.5255,-82.0032,2.368,7.64,1111122 
SCCF RECON,ioos:station:SCCF:13:1,2015-11-05T21:00:00Z,26.5255,-82.0032,2.389,7.52,1111122 
SCCF RECON,ioos:station:SCCF:13:1,2015-11-05T22:00:00Z,26.5255,-82.0032,2.484,7.46,1111122 
SCCF RECON,ioos:station:SCCF:13:1,2015-11-05T23:00:00Z,26.5255,-82.0032,2.562,6.39,1111122 
SCCF RECON,ioos:station:SCCF:13:1,2015-11-06T00:00:00Z,26.5255,-82.0032,2.63,6.36,1111122 
SCCF RECON,ioos:station:SCCF:13:1,2015-11-06T01:00:00Z,26.5255,-82.0032,2.677,5.95,1111122 
SCCF RECON,ioos:station:SCCF:13:1,2015-11-06T02:00:00Z,26.5255,-82.0032,2.714,6.13,1111122 
SCCF RECON,ioos:station:SCCF:13:1,2015-11-06T03:00:00Z,26.5255,-82.0032,2.74,6.0,1111122 
SCCF RECON,ioos:station:SCCF:13:1,2015-11-06T04:00:00Z,26.5255,-82.0032,2.72,5.92,1111122 
SCCF RECON,ioos:station:SCCF:13:1,2015-11-06T05:00:00Z,26.5255,-82.0032,2.652,5.62,1111122 
SCCF RECON,ioos:station:SCCF:13:1,2015-11-06T06:00:00Z,26.5255,-82.0032,2.557,5.33,1111122 
SCCF RECON,ioos:station:SCCF:13:1,2015-11-06T07:00:00Z,26.5255,-82.0032,2.46,5.7,1111122 
SCCF RECON,ioos:station:SCCF:13:1,2015-11-06T08:00:00Z,26.5255,-82.0032,2.41,6.25,1111122 
SCCF RECON,ioos:station:SCCF:13:1,2015-11-06T09:00:00Z,26.5255,-82.0032,2.39,6.2,1111122 
SCCF RECON,ioos:station:SCCF:13:1,2015-11-06T10:00:00Z,26.5255,-82.0032,2.42,6.43,1111122 
SCCF RECON,ioos:station:SCCF:13:1,2015-11-06T11:00:00Z,26.5255,-82.0032,2.53,6.23,1111122 
SCCF RECON,ioos:station:SCCF:13:1,2015-11-06T12:00:00Z,26.5255,-82.0032,2.62,5.3,1111122 
SCCF RECON,ioos:station:SCCF:13:1,2015-11-06T13:00:00Z,26.5255,-82.0032,2.67,5.32,1111122 
SCCF RECON,ioos:station:SCCF:13:1,2015-11-06T14:00:00Z,26.5255,-82.0032,2.698,5.42,1111122 
SCCF RECON,ioos:station:SCCF:13:1,2015-11-06T15:00:00Z,26.5255,-82.0032,2.72,5.5,1111122 
SCCF RECON,ioos:station:SCCF:13:1,2015-11-06T16:00:00Z,26.5255,-82.0032,2.72,5.5,1111122 
SCCF RECON,ioos:station:SCCF:13:1,2015-11-06T17:00:00Z,26.5255,-82.0032,2.654,5.18,1111122 
SCCF RECON,ioos:station:SCCF:13:1,2015-11-06T18:00:00Z,26.5255,-82.0032,2.57,5.12,1111122 
SCCF RECON,ioos:station:SCCF:13:1,2015-11-06T19:00:00Z,26.5255,-82.0032,2.49,5.43,1111122 
SCCF RECON,ioos:station:SCCF:13:1,2015-11-06T20:00:00Z,26.5255,-82.0032,2.43,6.49,1111122 
SCCF RECON,ioos:station:SCCF:13:1,2015-11-06T21:00:00Z,26.5255,-82.0032,2.403,6.64,1111122 
SCCF RECON,ioos:station:SCCF:13:1,2015-11-06T22:00:00Z,26.5255,-82.0032,2.43,6.76,1111122 
SCCF RECON,ioos:station:SCCF:13:1,2015-11-06T23:00:00Z,26.5255,-82.0032,2.52,6.5,1111122 
SCCF RECON,ioos:station:SCCF:13:1,2015-11-07T00:00:00Z,26.5255,-82.0032,2.607,5.36,1111122 
SCCF RECON,ioos:station:SCCF:13:1,2015-11-07T01:00:00Z,26.5255,-82.0032,2.67,5.56,1111122 
SCCF RECON,ioos:station:SCCF:13:1,2015-11-07T02:00:00Z,26.5255,-82.0032,2.74,5.56,1111122 
SCCF RECON,ioos:station:SCCF:13:1,2015-11-07T03:00:00Z,26.5255,-82.0032,2.786,5.85,1111122 
SCCF RECON,ioos:station:SCCF:13:1,2015-11-07T04:00:00Z,26.5255,-82.0032,2.79,5.94,1111122 
SCCF RECON,ioos:station:SCCF:13:1,2015-11-07T05:00:00Z,26.5255,-82.0032,2.73,5.87,1111122 
SCCF RECON,ioos:station:SCCF:13:1,2015-11-07T06:00:00Z,26.5255,-82.0032,2.64,5.71,1111122 
SCCF RECON,ioos:station:SCCF:13:1,2015-11-07T07:00:00Z,26.5255,-82.0032,2.53,5.53,1111122 
SCCF RECON,ioos:station:SCCF:13:1,2015-11-07T08:00:00Z,26.5255,-82.0032,2.44,5.73,1111122 
SCCF RECON,ioos:station:SCCF:13:1,2015-11-07T09:00:00Z,26.5255,-82.0032,2.37,5.82,1111122 
SCCF RECON,ioos:station:SCCF:13:1,2015-11-07T10:00:00Z,26.5255,-82.0032,2.33,5.9,1111122 
SCCF RECON,ioos:station:SCCF:13:1,2015-11-07T11:00:00Z,26.5255,-82.0032,2.403,5.91,1111122 
SCCF RECON,ioos:station:SCCF:13:1,2015-11-07T12:00:00Z,26.5255,-82.0032,2.519,5.7,1111122 
SCCF RECON,ioos:station:SCCF:13:1,2015-11-07T13:00:00Z,26.5255,-82.0032,2.59,5.04,1111122 
SCCF RECON,ioos:station:SCCF:13:1,2015-11-07T14:00:00Z,26.5255,-82.0032,2.65,5.24,1111122 
SCCF RECON,ioos:station:SCCF:13:1,2015-11-07T15:00:00Z,26.5255,-82.0032,2.7,5.35,1111122 
SCCF RECON,ioos:station:SCCF:13:1,2015-11-07T16:00:00Z,26.5255,-82.0032,2.72,5.56,1111122 
SCCF RECON,ioos:station:SCCF:13:1,2015-11-07T17:00:00Z,26.5255,-82.0032,2.688,5.77,1111122 
SCCF RECON,ioos:station:SCCF:13:1,2015-11-07T18:00:00Z,26.5255,-82.0032,2.61,5.73,1111122 
SCCF RECON,ioos:station:SCCF:13:1,2015-11-07T19:00:00Z,26.5255,-82.0032,2.539,5.74,1111122 
SCCF RECON,ioos:station:SCCF:13:1,2015-11-07T20:00:00Z,26.5255,-82.0032,2.458,5.85,1111122 
SCCF RECON,ioos:station:SCCF:13:1,2015-11-07T21:00:00Z,26.5255,-82.0032,2.413,6.06,1111122 
SCCF RECON,ioos:station:SCCF:13:1,2015-11-07T22:00:00Z,26.5255,-82.0032,2.409,5.93,1111122 
SCCF RECON,ioos:station:SCCF:13:1,2015-11-07T23:00:00Z,26.5255,-82.0032,2.449,5.75,1111122 
SCCF RECON,ioos:station:SCCF:13:1,2015-11-08T00:00:00Z,26.5255,-82.0032,2.55,5.49,1111122 
SCCF RECON,ioos:station:SCCF:13:1,2015-11-08T01:00:00Z,26.5255,-82.0032,2.65,5.44,1111122 
SCCF RECON,ioos:station:SCCF:13:1,2015-11-08T02:00:00Z,26.5255,-82.0032,2.7,5.9,1111122 
SCCF RECON,ioos:station:SCCF:13:1,2015-11-08T03:00:00Z,26.5255,-82.0032,2.74,5.79,1111122 
SCCF RECON,ioos:station:SCCF:13:1,2015-11-08T04:00:00Z,26.5255,-82.0032,2.79,6.09,1111122 
SCCF RECON,ioos:station:SCCF:13:1,2015-11-08T05:00:00Z,26.5255,-82.0032,2.78,6.11,1111122 
SCCF RECON,ioos:station:SCCF:13:1,2015-11-08T06:00:00Z,26.5255,-82.0032,2.69,5.9,1111122 
SCCF RECON,ioos:station:SCCF:13:1,2015-11-08T07:00:00Z,26.5255,-82.0032,2.57,5.67,1111122 
SCCF RECON,ioos:station:SCCF:13:1,2015-11-08T08:00:00Z,26.5255,-82.0032,2.463,5.57,1111122 
SCCF RECON,ioos:station:SCCF:13:1,2015-11-08T09:00:00Z,26.5255,-82.0032,2.39,5.65,1111122 
SCCF RECON,ioos:station:SCCF:13:1,2015-11-08T10:00:00Z,26.5255,-82.0032,2.31,5.53,1111122 
SCCF RECON,ioos:station:SCCF:13:1,2015-11-08T11:00:00Z,26.5255,-82.0032,2.302,5.55,1111122 
SCCF RECON,ioos:station:SCCF:13:1,2015-11-08T12:00:00Z,26.5255,-82.0032,2.42,5.51,1111122 
SCCF RECON,ioos:station:SCCF:13:1,2015-11-08T13:00:00Z,26.5255,-82.0032,2.545,5.26,1111122 
SCCF RECON,ioos:station:SCCF:13:1,2015-11-08T14:00:00Z,26.5255,-82.0032,2.629,5.08,1111122 
SCCF RECON,ioos:station:SCCF:13:1,2015-11-08T15:00:00Z,26.5255,-82.0032,2.678,5.32,1111122 
SCCF RECON,ioos:station:SCCF:13:1,2015-11-08T16:00:00Z,26.5255,-82.0032,2.731,5.65,1111122 
SCCF RECON,ioos:station:SCCF:13:1,2015-11-08T17:00:00Z,26.5255,-82.0032,2.768,6.0,1111122 
SCCF RECON,ioos:station:SCCF:13:1,2015-11-08T18:00:00Z,26.5255,-82.0032,2.756,6.31,1111122 
SCCF RECON,ioos:station:SCCF:13:1,2015-11-08T19:00:00Z,26.5255,-82.0032,2.699,6.42,1111122 
SCCF RECON,ioos:station:SCCF:13:1,2015-11-08T20:00:00Z,26.5255,-82.0032,2.62,6.49,1111122 
SCCF RECON,ioos:station:SCCF:13:1,2015-11-08T21:00:00Z,26.5255,-82.0032,2.558,6.49,1111122 
SCCF RECON,ioos:station:SCCF:13:1,2015-11-08T22:00:00Z,26.5255,-82.0032,2.518,6.01,1111122 
SCCF RECON,ioos:station:SCCF:13:1,2015-11-08T23:00:00Z,26.5255,-82.0032,2.5,6.0,1111122 
SCCF RECON,ioos:station:SCCF:13:1,2015-11-09T00:00:00Z,26.5255,-82.0032,2.59,5.89,1111122 
SCCF RECON,ioos:station:SCCF:13:1,2015-11-09T01:00:00Z,26.5255,-82.0032,2.73,5.38,1111122 
SCCF RECON,ioos:station:SCCF:13:1,2015-11-09T02:00:00Z,26.5255,-82.0032,2.8,5.7,1111122 
SCCF RECON,ioos:station:SCCF:13:1,2015-11-09T03:00:00Z,26.5255,-82.0032,2.84,6.03,1111122 
SCCF RECON,ioos:station:SCCF:13:1,2015-11-09T04:00:00Z,26.5255,-82.0032,2.88,5.94,1111122 
SCCF RECON,ioos:station:SCCF:13:1,2015-11-09T05:00:00Z,26.5255,-82.0032,2.89,5.93,1111122 
SCCF RECON,ioos:station:SCCF:13:1,2015-11-09T06:00:00Z,26.5255,-82.0032,2.83,5.85,1111122 
SCCF RECON,ioos:station:SCCF:13:1,2015-11-09T07:00:00Z,26.5255,-82.0032,2.719,5.69,1111122 
SCCF RECON,ioos:station:SCCF:13:1,2015-11-09T08:00:00Z,26.5255,-82.0032,2.6,5.39,1111122 
SCCF RECON,ioos:station:SCCF:13:1,2015-11-09T09:00:00Z,26.5255,-82.0032,2.508,5.3,1111122 
SCCF RECON,ioos:station:SCCF:13:1,2015-11-09T10:00:00Z,26.5255,-82.0032,2.417,5.35,1111122 
SCCF RECON,ioos:station:SCCF:13:1,2015-11-09T11:00:00Z,26.5255,-82.0032,2.341,5.24,1111122 
SCCF RECON,ioos:station:SCCF:13:1,2015-11-09T12:00:00Z,26.5255,-82.0032,2.33,5.17,1111122 
SCCF RECON,ioos:station:SCCF:13:1,2015-11-09T13:00:00Z,26.5255,-82.0032,2.468,5.12,1111122 
SCCF RECON,ioos:station:SCCF:13:1,2015-11-09T14:00:00Z,26.5255,-82.0032,2.6,4.79,1111122 
SCCF RECON,ioos:station:SCCF:13:1,2015-11-09T15:00:00Z,26.5255,-82.0032,2.66,4.82,1111122 
SCCF RECON,ioos:station:SCCF:13:1,2015-11-09T16:00:00Z,26.5255,-82.0032,2.71,5.14,1111122 
SCCF RECON,ioos:station:SCCF:13:1,2015-11-09T17:00:00Z,26.5255,-82.0032,2.756,5.46,1111122 
SCCF RECON,ioos:station:SCCF:13:1,2015-11-09T18:00:00Z,26.5255,-82.0032,2.73,5.86,1111122 
SCCF RECON,ioos:station:SCCF:13:1,2015-11-09T19:00:00Z,26.5255,-82.0032,2.68,6.08,1111122 
SCCF RECON,ioos:station:SCCF:13:1,2015-11-09T20:00:00Z,26.5255,-82.0032,2.61,5.84,1111122 
SCCF RECON,ioos:station:SCCF:13:1,2015-11-09T21:00:00Z,26.5255,-82.0032,2.56,5.87,1111122 
SCCF RECON,ioos:station:SCCF:13:1,2015-11-09T22:00:00Z,26.5255,-82.0032,2.521,5.53,1111122 
SCCF RECON,ioos:station:SCCF:13:1,2015-11-09T23:00:00Z,26.5255,-82.0032,2.494,5.54,1111122 
SCCF RECON,ioos:station:SCCF:13:1,2015-11-10T00:00:00Z,26.5255,-82.0032,2.505,5.37,1111122 
SCCF RECON,ioos:station:SCCF:13:1,2015-11-10T01:00:00Z,26.5255,-82.0032,2.61,5.17,1111122 
SCCF RECON,ioos:station:SCCF:13:1,2015-11-10T02:00:00Z,26.5255,-82.0032,2.727,4.98,1111122 
SCCF RECON,ioos:station:SCCF:13:1,2015-11-10T03:00:00Z,26.5255,-82.0032,2.81,5.32,1111122 
SCCF RECON,ioos:station:SCCF:13:1,2015-11-10T04:00:00Z,26.5255,-82.0032,2.847,5.64,1111122 
SCCF RECON,ioos:station:SCCF:13:1,2015-11-10T05:00:00Z,26.5255,-82.0032,2.88,5.62,1111122 
SCCF RECON,ioos:station:SCCF:13:1,2015-11-10T06:00:00Z,26.5255,-82.0032,2.86,5.73,1111122 
SCCF RECON,ioos:station:SCCF:13:1,2015-11-10T07:00:00Z,26.5255,-82.0032,2.75,5.55,1111122 
SCCF RECON,ioos:station:SCCF:13:1,2015-11-10T08:00:00Z,26.5255,-82.0032,2.62,5.29,1111122 
SCCF RECON,ioos:station:SCCF:13:1,2015-11-10T09:00:00Z,26.5255,-82.0032,2.53,4.93,1111122 
SCCF RECON,ioos:station:SCCF:13:1,2015-11-10T10:00:00Z,26.5255,-82.0032,2.441,5.11,1111122 
SCCF RECON,ioos:station:SCCF:13:1,2015-11-10T11:00:00Z,26.5255,-82.0032,2.37,5.05,1111122 
SCCF RECON,ioos:station:SCCF:13:1,2015-11-10T12:00:00Z,26.5255,-82.0032,2.32,4.92,1111122 
SCCF RECON,ioos:station:SCCF:13:1,2015-11-10T13:00:00Z,26.5255,-82.0032,2.37,4.85,1111122 
SCCF RECON,ioos:station:SCCF:13:1,2015-11-10T14:00:00Z,26.5255,-82.0032,2.52,4.96,1111122 
SCCF RECON,ioos:station:SCCF:13:1,2015-11-10T15:00:00Z,26.5255,-82.0032,2.623,4.45,1111122 
SCCF RECON,ioos:station:SCCF:13:1,2015-11-10T16:00:00Z,26.5255,-82.0032,2.68,4.54,1111122 
SCCF RECON,ioos:station:SCCF:13:1,2015-11-10T17:00:00Z,26.5255,-82.0032,2.74,4.79,1111122 
SCCF RECON,ioos:station:SCCF:13:1,2015-11-10T18:00:00Z,26.5255,-82.0032,2.78,5.08,1111122 
SCCF RECON,ioos:station:SCCF:13:1,2015-11-10T19:00:00Z,26.5255,-82.0032,2.72,5.53,1111122 
SCCF RECON,ioos:station:SCCF:13:1,2015-11-10T20:00:00Z,26.5255,-82.0032,2.618,5.46,1111122 
SCCF RECON,ioos:station:SCCF:13:1,2015-11-10T21:00:00Z,26.5255,-82.0032,2.54,5.39,1111122 
SCCF RECON,ioos:station:SCCF:13:1,2015-11-10T22:00:00Z,26.5255,-82.0032,2.503,5.25,1111122 
SCCF RECON,ioos:station:SCCF:13:1,2015-11-10T23:00:00Z,26.5255,-82.0032,2.46,5.2,1111122 
SCCF RECON,ioos:station:SCCF:13:1,2015-11-11T00:00:00Z,26.5255,-82.0032,2.45,5.04,1111122 
SCCF RECON,ioos:station:SCCF:13:1,2015-11-11T01:00:00Z,26.5255,-82.0032,2.5,5.06,1111122 
SCCF RECON,ioos:station:SCCF:13:1,2015-11-11T02:00:00Z,26.5255,-82.0032,2.63,4.78,1111122 
SCCF RECON,ioos:station:SCCF:13:1,2015-11-11T03:00:00Z,26.5255,-82.0032,2.73,4.74,1111122 
SCCF RECON,ioos:station:SCCF:13:1,2015-11-11T04:00:00Z,26.5255,-82.0032,2.78,4.93,1111122 
SCCF RECON,ioos:station:SCCF:13:1,2015-11-11T05:00:00Z,26.5255,-82.0032,2.81,5.32,1111122 
SCCF RECON,ioos:station:SCCF:13:1,2015-11-11T06:00:00Z,26.5255,-82.0032,2.79,5.34,1111122 
SCCF RECON,ioos:station:SCCF:13:1,2015-11-11T07:00:00Z,26.5255,-82.0032,2.7,5.33,1111122 
SCCF RECON,ioos:station:SCCF:13:1,2015-11-11T08:00:00Z,26.5255,-82.0032,2.57,5.06,1111122 
SCCF RECON,ioos:station:SCCF:13:1,2015-11-11T09:00:00Z,26.5255,-82.0032,2.478,4.76,1111122 
SCCF RECON,ioos:station:SCCF:13:1,2015-11-11T10:00:00Z,26.5255,-82.0032,2.39,4.84,1111122 
SCCF RECON,ioos:station:SCCF:13:1,2015-11-11T11:00:00Z,26.5255,-82.0032,2.31,4.82,1111122 
SCCF RECON,ioos:station:SCCF:13:1,2015-11-11T12:00:00Z,26.5255,-82.0032,2.24,4.89,1111122 
SCCF RECON,ioos:station:SCCF:13:1,2015-11-11T13:00:00Z,26.5255,-82.0032,2.229,4.81,1111122 
SCCF RECON,ioos:station:SCCF:13:1,2015-11-11T14:00:00Z,26.5255,-82.0032,2.35,4.95,1111122 
SCCF RECON,ioos:station:SCCF:13:1,2015-11-11T15:00:00Z,26.5255,-82.0032,2.479,4.99,1111122 
SCCF RECON,ioos:station:SCCF:13:1,2015-11-11T16:00:00Z,26.5255,-82.0032,2.55,4.62,1111122 
SCCF RECON,ioos:station:SCCF:13:1,2015-11-11T17:00:00Z,26.5255,-82.0032,2.617,4.76,1111122 
SCCF RECON,ioos:station:SCCF:13:1,2015-11-11T18:00:00Z,26.5255,-82.0032,2.675,4.99,1111122 
SCCF RECON,ioos:station:SCCF:13:1,2015-11-11T19:00:00Z,26.5255,-82.0032,2.679,5.3,1111122 
SCCF RECON,ioos:station:SCCF:13:1,2015-11-11T20:00:00Z,26.5255,-82.0032,2.61,5.55,1111122 
SCCF RECON,ioos:station:SCCF:13:1,2015-11-11T21:00:00Z,26.5255,-82.0032,2.534,5.35,1111122 